User: anonymous   Login
Location: Chervonnoye
(48.6000°N, 34.4000°E)
Time: 04:35:09
(UTC+00:00)
Language:

FENGYUN 1C DEB - Orbit

View from above orbital plane
View from above orbital plane
View from above satellite
View from above satellite

Ground track
Ground track

The orbit data is extracted from the following two-line orbital elements,

1 37060U 99025EEU 21165.79199577  .00000485  00000-0  36319-3 0  9992
2 37060  99.2897 195.8879 0082486 173.2933 186.9353 13.97996742690732
Epoch (UTC): 14 June 2021 19:00:28
Eccentricity: 0.0082486
inclination: 99.2897°
perigee height: 841 km
apogee height: 961 km
right ascension of ascending node: 195.8879°
argument of perigee: 173.2933°
revolutions per day: 13.97996742
mean anomaly at epoch: 186.9353°
orbit number at epoch: 69073

The dashed part of the orbit path shows where the satellite is in the earth's shadow,  

DLR